{"data":{"norad_id":65911,"intl_designator":"2025-225B","name":"STARLINK-35160","alt_names":[],"object_type":"PAYLOAD","status":"ACTIVE","operator":null,"country":"US","launch_date":"2025-10-08","launch_site_code":"AFWTR","launch_vehicle":null,"mission":null,"orbit_class":"UNKNOWN","rcs_meters":null,"size_class":null,"mass_kg":null,"dimensions":null,"purposes":["comms"],"wikipedia_slug":null,"has_3d_model":false,"image_url":null,"decayed_at":null,"tle_current":{"epoch":"2026-09-20T21:51:45.509760Z","epoch_age_seconds":67645,"freshness":"FRESH","line1":"1 65911U 25225B   26263.91094340  .00009720  00000+0  29849-3 0  9999","line2":"2 65911  53.1580 335.6173 0001332  77.2272 282.8879 15.34394950 54343","mean_motion":15.3439495,"eccentricity":0.0001332,"inclination_deg":53.158,"raan_deg":335.6173,"arg_perigee_deg":77.2272,"mean_anomaly_deg":282.8879,"bstar":0.00029849,"rev_number":5434,"period_min":93.848066953036,"perigee_km":461.80704799322,"apogee_km":463.6294518318,"semimajor_km":6840.8552499125,"source":"CELESTRAK","updated_at":"2026-09-21T09:00:35.762290Z"}}}